カタログに戻る

STARLINK-30265

運用中通信VLEO
NORAD 57646·PAYLOAD·🇺🇸 United States

打ち上げ Aug 17, 2023 から Cape Canaveral Space Force Station

Loading…

次のパス (今後24時間)

TLE

最新Source: CelesTrak SupGP

元期: Sep 14, 2026, 22:32 UTC

1 57646C 23122Q   26257.93937500  .00018318  00000+0  66364-3 0  2571
2 57646  42.9990 103.3657 0001374 272.8064 116.5910 15.27560740    13

AllMySatでSTARLINK-30265をリアルタイム追跡

Download on the App Store